STARLINK-1690 (46358 NORAD) Tracking and Keplerian Element Data

This shows tracking and keplerian element data for the satellite.

Feedback or suggestion? Click here.




ElementValue
Catalog46358
NameSTARLINK-1690
Epoch Orbit2297
Epoch Day26.91667824
Epoch Year2021
RAAN121.3514
Inclination53.0614
Eccentricity0.0001386
Argument of Perigee82.6576
Mean Anonmoly25.9643
Mean Motion15.06407049
Decay Rate-0.00032816
L11 46358U 20062AK 21026.91667824 -.00032816 00000-0 -21939-2 0 9998
L22 46358 53.0614 121.3514 0001386 82.6576 25.9643 15.06407049 22971

Live tracking and technical data element details for STARLINK-1690 (NORAD 46358). STARLINK-1690 can be tracked NOW for your location showing map with azimuth and elevation plus other details from your city location.

Track the satellite on the map from your city or location and see movement details for azimuth, elevation, latitude, longitude, range, height, and movement on the map or in text.







IsCatalogInMostPopularTable: catalog: 46358, numindb: 63
Update: records affected: 1



GetName: 46358 STARLINK-1690

Hit Count: updated at: Thu, 28 Jan 2021 12:11:09 GMT